Miscellaneous Local Product
Issued by NWS North Platte, NE

Home | Current Version | Previous Version | Graphics & Text | Print | Product List | Glossary On
Versions: 1 2 3 4 5 6 7 8 9 10 11 12 13 14 15 16 17 18 19 20 21 22 23 24 25 26 27 28 29 30 31 32 33 34 35 36 37 38 39 40 41 42 43 44 45 46 47 48 49 50
248
AXUS43 KLBF 242310
MISLBF


WESTERN AND NORTH CENTRAL NEBRASKA HOURLY WEATHER ROUNDUP
NATIONAL WEATHER SERVICE NORTH PLATTE NE
600 PM CDT SAT JUN 24 2017

NOTE: "FAIR" INDICATES FEW OR NO CLOUDS BELOW 12,000 FEET WITH NO
SIGNIFICANT WEATHER AND/OR OBSTRUCTIONS TO VISIBILITY.

NOTE: STATIONS NOT REPORTING VARIABLES SUCH AS SKY/WEATHER OR
PRESSURE ARE PROVIDED BY RAWS AND APRS NETWORKS AND ARE NOT UNDER
NATIONAL WEATHER SERVICE QUALITY CONTROL.

...OBSERVATIONS IN AND NEAR THE EASTERN PANHANDLE OF NEBRASKA...

CITY           SKY/WX    TMP DP  RH WIND       PRES   REMARKS
PINE RIDGE     PTSUNNY   72  35  25 CALM      30.25F
GORDON         FAIR      71  34  24 NW8       30.27S
CHADRON        PTSUNNY   76  31  19 W13G24    30.24F
ALLIANCE       CLOUDY    75  37  25 VRB7      30.26F
SIDNEY         MOSUNNY   75  34  22 CALM      30.28F
CRESCENT LAKE    N/A     76  37  24 NE3         N/A
$$

...OBSERVATIONS IN NORTHERN NEBRASKA AND FAR SOUTHERN SOUTH DAKOTA...

CITY           SKY/WX    TMP DP  RH WIND       PRES   REMARKS
WINNER         FAIR      77  32  19 NW20G29   30.19S
VALENTINE      PTSUNNY   77  28  16 NW13G23   30.21F
THEDFORD       LGT RAIN  71  35  27 NW12      30.26S
AINSWORTH      PTSUNNY   75  35  23 NW12G22   30.22S
O`NEILL        MOSUNNY   76  37  24 NW18G28   30.18S
ORD            CLOUDY    73  32  22 NW16G23   30.19S
BROKEN BOW     SUNNY     75  36  24 N20       30.23R
VALENTINE NWR    N/A     72  34  25 NW12G22     N/A
HALSEY           N/A     69  31  24 NW8G20      N/A
BUTTE            N/A     73  37  26 NW18G25     N/A
CHAMBERS         N/A     78  35  21 CALM        N/A
EWING            N/A     75  42  31 NW12G20     N/A
$$

...OBSERVATIONS IN SOUTHWEST NEBRASKA AND FAR NORTHEAST COLORADO...

CITY           SKY/WX    TMP DP  RH WIND       PRES   REMARKS
WRAY           CLOUDY    77  46  33 E12       30.25S
IMPERIAL       CLOUDY    72  42  34 SE7       30.26F
OGALLALA       CLOUDY    76  33  21 E3        30.25F
NORTH PLATTE   SUNNY     76  39  26 SW13      30.23F
MCCOOK         CLOUDY    69  54  58 E3        30.23F
LEXINGTON      CLOUDY    73  40  30 W8        30.22F
STAPLETON        N/A     74  40  28 CALM        N/A
GOTHENBURG       N/A     72  36  27 W6          N/A
CALLAWAY         N/A     74  44  33 W18         N/A
$$

...OBSERVATIONS IN CENTRAL LINCOLN COUNTY AREA...

CITY           SKY/WX    TMP DP  RH WIND       PRES   REMARKS
N.P. AIRPORT   SUNNY     76  39  26 SW13      30.23F
N.P. DOWNTOWN    N/A     76  41  28 CALM        N/A
N.P. SOUTHEAST   N/A     76  40  27 W3          N/A
N.P. HILLCREST   N/A     74  40  28 W9          N/A
$$

...SOME OBSERVATIONS FROM AROUND THE REGION...

CITY           SKY/WX    TMP DP  RH WIND       PRES   REMARKS
DENVER         PTSUNNY   74  44  34 N12       30.26F
LIMON          MOSUNNY   73  44  35 S12G22    30.27F
ASPEN          SUNNY     78  14   9 N20G26    30.30F
LARAMIE        PTSUNNY   67  36  31 E13       30.36S
CASPER         PTSUNNY   74  29  19 E5        30.30F
CHEYENNE       CLOUDY    67  38  34 E15       30.33F
SCOTTSBLUFF    MOSUNNY   75  35  23 N3        30.26S
GRAND ISLAND   CLOUDY    75  41  29 W15       30.19S
OMAHA          MOSUNNY   80  36  20 W21G28    30.11F
SIOUX FALLS    MOSUNNY   68  43  40 NW20G29   30.13R
PIERRE         SUNNY     72  30  21 NW20G28   30.18R
RAPID CITY     SUNNY     75  30  19 N18G30    30.25S
BISMARCK       PTSUNNY   65  40  39 N17       30.23S
KANSAS CITY    CLOUDY    77  45  32 NW8       30.17F
HILL CITY      CLOUDY    76  53  44 E6        30.21S
WICHITA        MOSUNNY   82  53  36 E7        30.15F
DODGE CITY     MOSUNNY   80  51  36 SW8       30.20F
OKLAHOMA CITY  PTSUNNY   84  50  30 NE12      30.14F
DALLAS         PTSUNNY   81  67  62 NE10      30.08F
AMARILLO       CLOUDY    72  59  63 SE10      30.23F
$$




USA.gov is the U.S. government's official web portal to all federal, state and local government web resources and services.